Volver al catálogo

STARLINK-31838

ActivoComunicacionesVLEO
NORAD 60130·PAYLOAD·🇺🇸 United States

Lanzado Jun 24, 2024 desde Vandenberg Space Force Base

Loading…

Próximos Pases (próximas 24 horas)

TLE

ActualizadoSource: CelesTrak SupGP

Época: Sep 14, 2026, 22:24 UTC

1 60130C 24118T   26257.93381944  .00018276  00000+0  58731-3 0  2576
2 60130  53.1575 226.2816 0001441 100.0844 146.2296 15.31714507    17

Sigue STARLINK-31838 en tiempo real con AllMySat

Download on the App Store